Voltar ao catálogo

DELTA 1 DEB

AtivoPO
NORAD 21565·DEBRIS·🇺🇸 United States

Lançado Jun 12, 1975 de Vandenberg Space Force Base

Loading…

Próximas Passagens (próximas 24 horas)

TLE

AtualizadoSource: Space-Track

Época: Sep 14, 2026, 06:51 UTC

1 21565U 75052HK  26257.28599986  .00000327  00000-0  11592-2 0  9998
2 21565  99.8302  17.3513 0367682 130.5846 262.8239 12.82059222645573

Acompanhe DELTA 1 DEB em tempo real com AllMySat

Download on the App Store